Home   Weather   Atlanta   Past weeks

Flag for USA Past Weather in Atlanta, Georgia, USA — Yesterday and Last 2 Weeks

Now
38 °F

Sunny.


Feels Like: 38 °F
Forecast: 25 / 46 °F
Wind: No wind

Location: Fulton County Airport-Brown Field

Current Time: Dec 10, 2016 at 12:00:00 pm

Latest Report: Dec 10, 2016 at 10:53 am


Visibility: 10 mi

Pressure: 30.56 "Hg

Humidity: 45%

Dew Point: 18 °F

Location of AtlantaLocation

Past Weather in Atlanta — Graph

°F

Atlanta Temperature Yesterday

Maximum temperature yesterday: 42 °F (at 2:53 pm)
Minimum temperature yesterday: 27 °F (at 7:53 am)
Average temperature yesterday: 34 °F

High & Low Weather Summary for the Past Weeks

 TemperatureHumidityPressure
High72 °F (Nov 30, 12:53 pm)94% (Nov 29, 6:53 pm)30.57 "Hg (Nov 29, 6:53 pm)
Low24 °F (Dec 10, 7:53 am)27% (Dec 2, 2:53 pm)29.68 "Hg (Nov 30, 3:53 pm)
Average50 °F65%30.09 "Hg
* Reported Nov 25 9:53 am — Dec 10 9:53 am, Atlanta, Weather by CustomWeather, © 2016

Note: Actual official high and low records may vary slightly from our data, if they occured in-between our weather recording intervals... More about our weather records

Advertising

Atlanta Weather History for the Previous 24 Hours

Scroll right to see more
 ConditionsComfort  
Time TempWeatherWind HumidityBarometerVisibility
9:53 am
Sat, Dec 10
34 °FSunny.No wind54%30.57 "Hg10 mi
8:53 am28 °FSunny.No wind72%30.56 "Hg10 mi
7:53 am24 °FSunny.No wind77%30.54 "Hg10 mi
6:53 am25 °FClear.No wind72%30.54 "Hg10 mi
5:53 am26 °FClear.No wind66%30.53 "Hg10 mi
4:53 am27 °FClear.No wind63%30.50 "Hg10 mi
3:53 am28 °FClear.No wind61%30.50 "Hg10 mi
2:53 am29 °FClear.No wind58%30.49 "Hg10 mi
1:53 am29 °FClear.No wind56%30.50 "Hg10 mi
12:53 am30 °FClear.No wind56%30.49 "Hg10 mi
11:53 pm
Fri, Dec 9
31 °FClear.No wind54%30.49 "Hg10 mi
10:53 pm32 °FClear.No wind52%30.49 "Hg10 mi
9:53 pm32 °FClear.3 mph50%30.48 "Hg10 mi
8:53 pm33 °FClear.5 mph45%30.48 "Hg10 mi
7:53 pm34 °FClear.7 mph46%30.47 "Hg10 mi
6:53 pm35 °FClear.No wind44%30.47 "Hg10 mi
5:53 pm37 °FClear.7 mph42%30.45 "Hg10 mi
4:53 pm40 °FSunny.10 mph36%30.46 "Hg10 mi
3:53 pm42 °FSunny.14 mph32%30.45 "Hg10 mi
2:53 pm42 °FSunny.13 mph33%30.43 "Hg10 mi
1:53 pm41 °FSunny.9 mph35%30.45 "Hg10 mi
12:53 pm39 °FSunny.14 mph38%30.47 "Hg10 mi
Weather by CustomWeather, © 2016

See weather overviewHow to use our weather pages